DW2047 Weather Reports


Display with metric or nautical units.
time (UTC)temp
F
wind
direction
speed
MPH
gust
MPH
rain 1hr
in
rain 24hr
in
rain mn
in
humidity
%
barometer
mb
20210306051058 57 23 9.0 0.0 0.00 0.00 0.00 77 1022.4
20210306050605 57 320 8.0 0.0 0.00 0.00 0.00 77 1022.4
20210306050243 57 330 7.0 0.0 0.00 0.00 0.00 75 1022.3
20210306045046 57 324 6.0 0.0 0.00 0.00 0.00 73 1022.2
20210306044549 57 328 6.0 0.0 0.00 0.00 0.00 73 1022.2
20210306044031 57 319 6.0 0.0 0.00 0.00 0.00 73 1022.1
20210306043518 57 326 5.0 0.0 0.00 0.00 0.00 73 1022.1
20210306043027 57 330 6.0 0.0 0.00 0.00 0.00 73 1022.0
20210306042811 57 318 6.0 0.0 0.00 0.00 0.00 72 1022.0
20210306042142 57 321 6.0 0.0 0.00 0.00 0.00 72 1022.0
20210306041545 57 327 6.0 0.0 0.00 0.00 0.00 72 1022.1
20210306040526 57 331 7.0 0.0 0.00 0.00 0.00 71 1021.9
20210306040044 57 297 7.0 0.0 0.00 0.00 0.00 71 1021.9
20210306035744 58 311 7.0 0.0 0.00 0.00 0.00 71 1021.8
20210306035056 58 333 7.0 0.0 0.00 0.00 0.00 70 1021.8
20210306034545 58 298 7.0 0.0 0.00 0.00 0.00 70 1021.8
20210306034034 58 337 7.0 0.0 0.00 0.00 0.00 70 1021.6
20210306033034 58 306 7.0 0.0 0.00 0.00 0.00 69 1021.6
20210306032921 58 315 8.0 0.0 0.00 0.00 0.00 69 1021.5
20210306032533 58 293 10.0 0.0 0.00 0.00 0.00 68 1021.4
20210306031022 58 318 8.0 0.0 0.00 0.00 0.00 68 1021.4
20210306030530 58 290 8.0 0.0 0.00 0.00 0.00 68 1021.2
20210306030156 57 296 7.0 0.0 0.00 0.00 0.00 69 1021.0
20210306025434 57 337 7.0 0.0 0.00 0.00 0.00 68 1020.9
20210306024529 57 302 7.0 0.0 0.00 0.00 0.00 68 1020.9
20210306023010 58 335 7.0 0.0 0.00 0.00 0.00 67 1020.6
20210306022739 58 321 5.0 0.0 0.00 0.00 0.00 66 1020.5
20210306022154 58 319 6.0 0.0 0.00 0.00 0.00 65 1020.4
20210306021524 58 313 7.0 0.0 0.00 0.00 0.00 64 1020.4
20210306021025 58 323 7.0 0.0 0.00 0.00 0.00 64 1020.2
20210306020137 59 310 6.0 0.0 0.00 0.00 0.00 63 1019.9
20210306020027 59 329 5.0 0.0 0.00 0.00 0.00 62 1019.9
20210306015343 59 293 5.0 0.0 0.00 0.00 0.00 61 1019.8
20210306014531 59 292 7.0 0.0 0.00 0.00 0.00 61 1019.8
20210306014025 60 304 8.0 0.0 0.00 0.00 0.00 60 1019.7
20210306013523 60 339 10.0 0.0 0.00 0.00 0.00 60 1019.5
20210306013028 60 277 9.0 0.0 0.00 0.00 0.00 60 1019.5
20210306012824 60 5 9.0 0.0 0.00 0.00 0.00 60 1019.4
20210306012152 61 311 9.0 0.0 0.00 0.00 0.00 59 1019.3
20210306011621 61 331 8.0 0.0 0.00 0.00 0.00 59 1019.1
20210306011150 61 342 7.0 0.0 0.00 0.00 0.00 58 1019.0
20210306010016 62 311 7.0 0.0 0.00 0.00 0.00 56 1018.8
20210306005813 62 288 8.0 0.0 0.00 0.00 0.00 55 1018.6
20210306005201 62 333 9.0 0.0 0.00 0.00 0.00 54 1018.5
20210306004541 62 338 11.0 0.0 0.00 0.00 0.00 54 1018.4
20210306004020 63 330 10.0 0.0 0.00 0.00 0.00 54 1018.4
20210306003556 63 312 10.0 0.0 0.00 0.00 0.00 54 1018.3
20210306003313 63 308 10.0 0.0 0.00 0.00 0.00 53 1018.2
20210306003116 63 315 9.0 0.0 0.00 0.00 0.00 53 1017.9
20210306001519 64 350 9.0 0.0 0.00 0.00 0.00 52 1017.8
20210306001011 64 305 9.0 0.0 0.00 0.00 0.00 52 1017.6
20210306000532 65 344 11.0 0.0 0.00 0.00 0.00 51 1017.4
20210306000349 65 338 10.0 0.0 0.00 0.00 0.00 50 1017.4
20210305235925 66 323 9.0 0.0 0.00 0.00 0.00 50 1017.3
20210305234540 67 322 11.0 0.0 0.00 0.00 0.00 48 1017.1
20210305234023 67 340 12.0 0.0 0.00 0.00 0.00 48 1016.8
20210305233541 68 327 11.0 0.0 0.00 0.00 0.00 48 1016.7
20210305233033 69 290 10.0 0.0 0.00 0.00 0.00 46 1016.5
20210305232332 70 302 12.0 0.0 0.00 0.00 0.00 45 1016.3
20210305231529 71 342 12.0 0.0 0.00 0.00 0.00 43 1016.1
20210305231024 71 323 13.0 0.0 0.00 0.00 0.00 42 1015.9
20210305230522 71 313 12.0 0.0 0.00 0.00 0.00 42 1015.7
20210305225236 73 344 10.0 0.0 0.00 0.00 0.00 37 1015.4
20210305224537 73 320 10.0 0.0 0.00 0.00 0.00 37 1015.4
20210305224026 73 300 10.0 0.0 0.00 0.00 0.00 37 1015.3
20210305223523 74 342 9.0 0.0 0.00 0.00 0.00 36 1015.3
20210305223029 74 343 9.0 0.0 0.00 0.00 0.00 35 1015.1
20210305222823 74 306 10.0 0.0 0.00 0.00 0.00 35 1015.0
20210305222141 74 317 10.0 0.0 0.00 0.00 0.00 34 1015.0
20210305221519 74 290 9.0 0.0 0.00 0.00 0.00 33 1014.8
20210305221031 75 336 9.0 0.0 0.00 0.00 0.00 33 1014.9
20210305220621 75 329 8.0 0.0 0.00 0.00 0.00 32 1014.8
20210305215745 75 278 7.0 0.0 0.00 0.00 0.00 32 1014.7
20210305215056 75 288 8.0 0.0 0.00 0.00 0.00 30 1014.8
20210305214725 75 284 9.0 0.0 0.00 0.00 0.00 30 1014.8
20210305214102 75 306 8.0 0.0 0.00 0.00 0.00 30 1014.7
20210305212913 76 302 9.0 0.0 0.00 0.00 0.00 28 1014.6
20210305212408 76 320 9.0 0.0 0.00 0.00 0.00 28 1014.5
20210305211526 76 291 8.0 0.0 0.00 0.00 0.00 27 1014.4
20210305211032 76 304 7.0 0.0 0.00 0.00 0.00 28 1014.4
20210305205153 76 283 9.0 0.0 0.00 0.00 0.00 29 1014.3
20210305204519 75 338 9.0 0.0 0.00 0.00 0.00 28 1014.3
20210305204024 76 314 9.0 0.0 0.00 0.00 0.00 29 1014.4
20210305203525 76 292 8.0 0.0 0.00 0.00 0.00 29 1014.5
20210305203040 76 299 9.0 0.0 0.00 0.00 0.00 30 1014.3
20210305202825 75 350 9.0 0.0 0.00 0.00 0.00 30 1014.4
20210305202313 76 306 9.0 0.0 0.00 0.00 0.00 29 1014.5
20210305201540 75 281 9.0 0.0 0.00 0.00 0.00 28 1014.4
20210305201026 76 342 10.0 0.0 0.00 0.00 0.00 27 1014.3
20210305200658 77 313 8.0 0.0 0.00 0.00 0.00 28 1014.2
20210305200357 77 254 8.0 0.0 0.00 0.00 0.00 27 1014.3
20210305200021 77 297 8.0 0.0 0.00 0.00 0.00 27 1014.3
20210305195612 77 318 9.0 0.0 0.00 0.00 0.00 27 1014.1
20210305194520 76 306 9.0 0.0 0.00 0.00 0.00 28 1014.2
20210305194027 76 289 10.0 0.0 0.00 0.00 0.00 27 1014.3
20210305192910 77 304 8.0 0.0 0.00 0.00 0.00 25 1014.2
20210305192212 76 337 8.0 0.0 0.00 0.00 0.00 25 1014.3
20210305191740 76 292 8.0 0.0 0.00 0.00 0.00 24 1014.5
20210305190511 76 280 8.0 0.0 0.00 0.00 0.00 27 1014.6
20210305190036 76 306 7.0 0.0 0.00 0.00 0.00 28 1014.7
20210305185829 76 291 6.0 0.0 0.00 0.00 0.00 29 1014.7
20210305185220 75 298 7.0 0.0 0.00 0.00 0.00 29 1014.7
20210305184539 76 326 8.0 0.0 0.00 0.00 0.00 29 1014.7
20210305184042 75 269 7.0 0.0 0.00 0.00 0.00 30 1014.8
20210305183520 76 278 6.0 0.0 0.00 0.00 0.00 31 1014.9
20210305183115 75 283 6.0 0.0 0.00 0.00 0.00 30 1014.9
20210305182730 74 279 6.0 0.0 0.00 0.00 0.00 31 1015.0
20210305181529 74 279 6.0 0.0 0.00 0.00 0.00 31 1015.1
20210305181025 73 257 5.0 0.0 0.00 0.00 0.00 33 1015.1
20210305180521 73 286 5.0 0.0 0.00 0.00 0.00 34 1015.2
20210305180055 72 249 5.0 0.0 0.00 0.00 0.00 34 1015.2
20210305175913 72 296 5.0 0.0 0.00 0.00 0.00 35 1015.3
20210305175523 72 281 6.0 0.0 0.00 0.00 0.00 34 1015.4
20210305174725 72 326 5.0 0.0 0.00 0.00 0.00 35 1015.4
20210305173021 71 347 6.0 0.0 0.00 0.00 0.00 36 1015.6
20210305172145 71 287 6.0 0.0 0.00 0.00 0.00 36 1015.4
20210305171532 70 257 7.0 0.0 0.00 0.00 0.00 35 1015.4
20210305171112 70 278 7.0 0.0 0.00 0.00 0.00 36 1015.5
20210305165946 69 281 6.0 0.0 0.00 0.00 0.00 38 1015.6
20210305165655 69 278 6.0 0.0 0.00 0.00 0.00 38 1015.5
20210305164232 69 290 5.0 0.0 0.00 0.00 0.00 40 1015.5
20210305164102 68 302 6.0 0.0 0.00 0.00 0.00 40 1015.5
20210305163755 68 310 7.0 0.0 0.00 0.00 0.00 39 1015.4
20210305163316 68 304 7.0 0.0 0.00 0.00 0.00 40 1015.5
20210305162606 68 276 7.0 0.0 0.00 0.00 0.00 43 1015.5
20210305161545 68 264 6.0 0.0 0.00 0.00 0.00 42 1015.5
20210305161036 68 302 7.0 0.0 0.00 0.00 0.00 43 1015.5
20210305160528 68 293 6.0 0.0 0.00 0.00 0.00 46 1015.5
20210305160031 68 284 5.0 0.0 0.00 0.00 0.00 47 1015.6
20210305155735 68 290 6.0 0.0 0.00 0.00 0.00 50 1015.6
20210305155131 67 263 6.0 0.0 0.00 0.00 0.00 54 1015.6
20210305154533 67 248 6.0 0.0 0.00 0.00 0.00 57 1015.6
20210305153522 67 292 5.0 0.0 0.00 0.00 0.00 64 1015.8
20210305153144 66 256 4.0 0.0 0.00 0.00 0.00 67 1015.8
20210305152312 65 300 4.0 0.0 0.00 0.00 0.00 75 1015.7
20210305151523 65 297 4.0 0.0 0.00 0.00 0.00 77 1015.7
20210305151024 64 274 3.0 0.0 0.00 0.00 0.00 80 1015.6
20210305150518 63 290 3.0 0.0 0.00 0.00 0.00 83 1015.5
20210305150054 63 221 3.0 0.0 0.00 0.00 0.00 84 1015.4
20210305145333 62 216 3.0 0.0 0.00 0.00 0.00 87 1015.5
20210305144545 61 254 3.0 0.0 0.00 0.00 0.00 88 1015.5
20210305143522 60 199 4.0 0.0 0.00 0.00 0.00 91 1015.4
20210305143034 60 217 4.0 0.0 0.00 0.00 0.00 92 1015.3
20210305142801 59 197 3.0 0.0 0.00 0.00 0.00 93 1015.3
20210305142125 59 212 2.0 0.0 0.00 0.00 0.00 93 1015.2
20210305141553 58 226 2.0 0.0 0.00 0.00 0.00 94 1015.1
20210305141021 58 217 3.0 0.0 0.00 0.00 0.00 94 1015.2
20210305140235 58 221 2.0 0.0 0.00 0.00 0.00 94 1015.1
20210305140044 58 221 1.0 0.0 0.00 0.00 0.00 94 1015.0
20210305135417 57 206 1.0 0.0 0.00 0.00 0.00 94 1015.0
20210305134537 57 222 2.0 0.0 0.00 0.00 0.00 93 1014.9
20210305134031 57 186 3.0 0.0 0.00 0.00 0.00 93 1014.6
20210305133531 57 198 4.0 0.0 0.00 0.00 0.00 93 1014.6
20210305133023 57 222 3.0 0.0 0.00 0.00 0.00 93 1014.7
20210305132851 57 190 3.0 0.0 0.00 0.00 0.00 93 1014.7
20210305132213 57 217 3.0 0.0 0.00 0.00 0.00 93 1014.7
20210305131517 57 223 3.0 0.0 0.00 0.00 0.00 93 1014.7
20210305130541 57 164 3.0 0.0 0.00 0.00 0.00 93 1014.6
20210305130212 57 196 3.0 0.0 0.00 0.00 0.00 93 1014.6
20210305130023 57 159 3.0 0.0 0.00 0.00 0.00 93 1014.7
20210305123618 57 205 3.0 0.0 0.00 0.00 0.00 92 1014.8
20210305123407 57 202 2.0 0.0 0.00 0.00 0.00 92 1014.9
20210305123149 57 209 2.0 0.0 0.00 0.00 0.00 91 1014.8
20210305122521 57 197 3.0 0.0 0.00 0.00 0.00 91 1014.8
20210305121520 57 202 3.0 0.0 0.00 0.00 0.00 91 1014.9
20210305121029 57 204 4.0 0.0 0.00 0.00 0.00 91 1014.9
20210305120524 57 172 3.0 0.0 0.00 0.00 0.00 91 1014.7
20210305115906 57 217 2.0 0.0 0.00 0.00 0.00 91 1014.9
20210305115411 57 184 3.0 0.0 0.00 0.00 0.00 91 1014.8
20210305114524 57 221 3.0 0.0 0.00 0.00 0.00 91 1014.7
20210305114026 57 195 3.0 0.0 0.00 0.00 0.00 91 1014.6
20210305113540 57 194 2.0 0.0 0.00 0.00 0.00 90 1014.8
20210305113100 57 214 2.0 0.0 0.00 0.00 0.00 90 1014.9
20210305112816 57 169 2.0 0.0 0.00 0.00 0.00 90 1014.7
20210305112250 57 213 2.0 0.0 0.00 0.00 0.00 90 1014.8
20210305111513 57 201 3.0 0.0 0.00 0.00 0.00 90 1014.7
20210305111146 57 225 2.0 0.0 0.00 0.00 0.00 90 1014.5
20210305110047 57 185 3.0 0.0 0.00 0.00 0.00 90 1014.4
20210305105946 57 194 3.0 0.0 0.00 0.00 0.00 90 1014.3
20210305105617 57 210 3.0 0.0 0.00 0.00 0.00 89 1014.3
20210305104031 57 209 3.0 0.0 0.00 0.00 0.00 89 1014.2
20210305103525 57 197 3.0 0.0 0.00 0.00 0.00 89 1014.2
20210305103023 57 200 3.0 0.0 0.00 0.00 0.00 89 1014.3
20210305102745 57 230 3.0 0.0 0.00 0.00 0.00 89 1014.4
20210305102156 57 198 3.0 0.0 0.00 0.00 0.00 89 1014.3
20210305101550 57 214 4.0 0.0 0.00 0.00 0.00 89 1014.3
20210305095837 57 154 3.0 0.0 0.00 0.00 0.00 88 1014.2
20210305095214 57 169 3.0 0.0 0.00 0.00 0.00 88 1014.3
20210305094547 57 150 3.0 0.0 0.00 0.00 0.00 88 1014.3
20210305094027 57 161 4.0 0.0 0.00 0.00 0.00 88 1014.5
20210305093521 57 194 4.0 0.0 0.00 0.00 0.00 87 1014.6
20210305093052 57 178 3.0 0.0 0.00 0.00 0.00 87 1014.5
20210305092810 57 196 3.0 0.0 0.00 0.00 0.00 87 1014.3
20210305092416 57 209 4.0 0.0 0.00 0.00 0.00 87 1014.4
20210305091526 57 172 4.0 0.0 0.00 0.00 0.00 86 1014.4
20210305091016 57 163 4.0 0.0 0.00 0.00 0.00 86 1014.4
20210305090515 57 183 3.0 0.0 0.00 0.00 0.00 86 1014.3
20210305090026 57 191 3.0 0.0 0.00 0.00 0.00 86 1014.5
20210305085743 57 195 4.0 0.0 0.00 0.00 0.00 86 1014.5
20210305085349 57 207 4.0 0.0 0.00 0.00 0.00 86 1014.5
20210305084521 57 190 4.0 0.0 0.00 0.00 0.00 86 1014.5
20210305083513 57 148 3.0 0.0 0.00 0.00 0.00 85 1014.5
20210305083123 57 205 4.0 0.0 0.00 0.00 0.00 85 1014.6
20210305082909 57 209 5.0 0.0 0.00 0.00 0.00 85 1014.7
20210305082409 57 171 5.0 0.0 0.00 0.00 0.00 85 1014.7
20210305081510 57 164 4.0 0.0 0.00 0.00 0.00 85 1014.7
20210305081022 57 163 4.0 0.0 0.00 0.00 0.00 85 1014.8
20210305080529 57 161 4.0 0.0 0.00 0.00 0.00 85 1014.9
20210305075927 57 166 5.0 0.0 0.00 0.00 0.00 85 1014.9
20210305075443 57 213 4.0 0.0 0.00 0.00 0.00 85 1015.0
20210305074559 57 159 4.0 0.0 0.00 0.00 0.00 85 1014.9
20210305073514 57 128 4.0 0.0 0.00 0.00 0.00 85 1015.1
20210305073019 57 147 5.0 0.0 0.00 0.00 0.00 85 1015.2
20210305072816 57 209 5.0 0.0 0.00 0.00 0.00 85 1015.4
20210305072435 57 159 5.0 0.0 0.00 0.00 0.00 85 1015.5
20210305071024 57 141 4.0 0.0 0.00 0.00 0.00 85 1015.5
20210305070525 57 192 4.0 0.0 0.00 0.00 0.00 84 1015.7
20210305070130 57 161 5.0 0.0 0.00 0.00 0.00 84 1015.7
20210305065816 57 188 5.0 0.0 0.00 0.00 0.00 84 1015.7
20210305065105 57 170 5.0 0.0 0.00 0.00 0.00 84 1015.7
20210305064539 57 178 4.0 0.0 0.00 0.00 0.00 84 1015.8
20210305064019 57 133 3.0 0.0 0.00 0.00 0.00 84 1015.9
20210305063521 57 189 3.0 0.0 0.00 0.00 0.00 84 1016.1
20210305062359 57 209 3.0 0.0 0.00 0.00 0.00 82 1016.5
20210305061529 57 197 3.0 0.0 0.00 0.00 0.00 82 1016.4
20210305061030 57 208 4.0 0.0 0.00 0.00 0.00 82 1016.3
20210305060527 57 172 4.0 0.0 0.00 0.00 0.00 81 1016.2
20210305060042 57 168 4.0 0.0 0.00 0.00 0.00 81 1016.3
20210305055149 57 173 4.0 0.0 0.00 0.00 0.00 80 1016.2
20210305054544 57 195 4.0 0.0 0.00 0.00 0.00 79 1016.1
20210305052155 58 167 4.0 0.0 0.00 0.00 0.00 76 1016.4